Theta_e
348 352 358 355 354 353 353 353 355 355 355 354 353 352 350 348 347 346 346 345 345 345 344 344 343 343 344 344 345 345 345 345 345 346 349 349 350 351 357 354 352 348 352
349 352 357 355 354 353 352 354 357 355 354 353 351 349 346 346 346 346 345 344 343 343 343 343 342 343 343 343 343 341 342 344 345 344 345 349 351 351 354 354 353 350 352
349 351 352 355 353 352 353 356 356 355 353 350 347 346 346 345 345 344 343 342 342 342 341 341 341 341 341 340 340 343 346 352 356 351 349 341 344 351 353 354 354 352 353
350 348 350 355 353 352 355 357 355 353 349 346 345 345 344 345 343 342 341 341 341 340 339 339 339 338 338 338 345 351 352 355 355 353 347 347 344 350 353 353 353 352 352
347 348 349 354 353 354 357 355 353 348 346 345 344 344 344 342 341 340 340 340 339 338 337 336 336 336 338 342 348 353 353 353 352 348 343 344 345 350 352 352 352 351 350
345 346 354 354 353 355 357 353 349 346 345 344 344 344 342 341 340 340 340 338 337 337 338 337 338 340 341 344 352 351 350 350 348 341 343 344 344 351 351 351 351 351 350
343 346 349 353 353 356 355 352 348 345 344 344 343 343 341 339 340 339 338 336 336 337 339 340 341 342 344 348 350 349 349 349 339 342 341 343 346 350 349 349 348 349 349
345 346 347 352 355 357 354 350 347 345 343 342 343 341 340 339 339 338 336 335 336 337 337 338 339 344 350 351 349 346 346 346 339 338 338 340 347 348 347 347 347 347 347
346 346 343 345 351 356 354 349 346 344 343 342 343 341 340 339 338 337 335 335 336 337 339 341 342 346 349 348 347 346 345 345 332 335 339 338 346 346 345 345 345 345 345
344 342 338 342 349 348 348 349 346 344 343 342 342 341 340 338 338 336 335 338 336 337 342 345 345 345 347 346 345 345 345 343 332 334 336 339 345 345 344 343 342 342 342
341 338 338 340 347 344 343 343 345 344 343 342 340 342 341 330 328 328 335 337 336 338 342 341 343 347 345 343 343 343 340 333 333 334 335 343 344 343 342 341 340 339 339
337 338 335 341 346 341 345 338 335 335 333 332 334 334 331 328 328 328 334 337 338 339 337 335 346 345 337 331 334 336 330 331 333 334 335 342 341 341 339 338 337 337 337
338 338 336 341 342 339 338 335 333 332 331 328 330 331 329 329 327 325 323 324 324 332 324 322 317 319 323 326 327 327 329 330 330 332 336 339 337 337 336 334 333 332 331
336 335 335 340 340 338 335 333 331 331 330 327 326 326 327 323 323 322 321 322 322 325 321 315 314 315 320 324 326 326 326 327 328 329 333 336 334 333 331 330 330 329 328
335 335 333 337 340 339 334 332 330 330 331 330 328 325 325 323 321 321 320 318 319 324 318 315 315 314 319 322 324 326 326 326 327 327 325 333 332 330 329 329 328 327 326
336 335 334 335 340 336 333 331 330 330 331 328 325 327 326 323 321 320 321 319 318 321 321 316 317 313 314 320 322 324 324 324 323 323 323 324 331 329 329 329 328 327 326
336 334 333 333 335 334 333 332 330 331 330 325 326 326 326 323 320 322 320 318 318 319 319 317 316 314 313 314 318 321 323 323 322 321 321 320 324 329 329 329 328 327 326
333 332 333 336 336 333 331 330 330 328 326 325 324 326 326 324 322 322 317 314 316 318 319 317 315 316 313 312 312 316 320 321 320 319 319 318 316 317 325 328 328 327 326
333 335 334 336 334 332 331 330 328 327 326 324 326 325 325 324 324 317 315 316 318 318 319 318 314 315 313 312 312 311 314 318 319 320 317 316 314 315 315 326 327 327 326
335 337 337 335 333 331 330 327 327 327 326 327 328 330 326 323 321 316 316 317 319 319 315 314 312 311 312 311 317 313 311 313 318 318 317 317 313 313 312 314 316 318 325
334 336 336 334 330 332 328 325 323 323 324 324 323 324 322 319 319 318 318 318 319 318 313 312 312 309 309 309 313 312 313 313 313 314 316 314 312 313 312 313 312 313 317
334 335 335 333 330 329 329 327 326 325 325 326 322 320 319 319 318 319 321 319 312 309 311 312 311 309 311 308 305 306 305 311 314 314 312 314 313 312 312 313 312 312 313
332 333 334 332 332 330 329 327 325 325 324 322 320 319 318 320 320 320 320 319 311 309 307 310 310 309 307 306 306 306 305 305 305 309 313 312 312 310 311 312 312 312 312
332 335 335 334 332 329 328 326 324 323 323 323 321 320 319 320 320 322 320 319 312 310 311 310 313 309 306 305 306 308 307 306 301 299 307 310 312 310 309 307 310 312 312
335 333 334 334 331 327 327 327 325 322 320 318 317 319 318 317 318 321 321 319 312 310 310 309 308 307 308 309 306 304 304 303 302 298 297 300 305 310 308 307 307 308 310
334 332 331 332 331 328 327 327 325 323 320 317 315 316 316 315 315 317 319 316 314 310 310 308 307 308 311 307 309 304 302 300 299 300 299 301 300 304 308 310 307 309 309
Wind_Speed
7 7 14 14 13 13 12 13 13 13 13 13 13 13 13 13 13 12 12 12 11 12 12 11 11 11 12 12 13 10 7 5 4 3 3 4 5 7 7 10 10 7 12
11 8 14 14 13 12 12 12 12 13 12 12 12 12 12 12 12 11 11 11 11 12 12 12 11 12 12 12 12 8 7 7 4 0 2 4 6 7 9 10 10 8 11
11 9 11 14 14 13 12 12 13 12 12 11 12 12 12 11 11 10 10 10 11 12 12 12 12 12 12 12 10 9 8 10 12 8 8 4 4 7 8 11 10 10 11
11 7 7 15 14 13 12 14 12 11 11 11 12 12 11 11 11 9 9 10 11 11 11 11 12 12 12 11 11 8 14 16 17 16 6 4 4 7 9 11 11 10 11
10 8 9 15 14 14 12 13 12 11 11 12 11 10 11 10 10 9 9 10 10 11 12 11 11 12 12 11 11 17 17 17 17 12 7 6 5 8 10 12 12 11 10
9 7 14 15 14 13 14 12 11 11 11 10 10 9 9 9 9 9 9 9 11 12 13 13 14 12 10 12 17 17 17 17 15 8 7 7 6 11 14 14 15 14 12
8 6 9 15 14 13 12 11 10 10 10 9 8 8 8 8 8 8 8 9 11 13 14 14 13 11 9 12 17 16 16 17 7 9 7 6 9 15 15 15 14 14 17
12 7 8 16 15 13 11 10 9 9 9 8 8 6 7 7 8 7 8 9 11 11 12 11 11 11 12 16 17 17 17 15 10 8 6 5 10 16 16 16 17 16 17
9 8 6 7 11 15 14 12 10 9 8 7 6 6 6 6 6 6 7 8 9 11 12 12 9 14 17 18 17 17 16 15 6 4 6 4 14 16 17 17 17 19 19
6 4 4 4 4 5 5 12 11 10 8 7 7 6 5 5 6 6 6 7 10 12 13 14 10 15 17 17 18 17 16 15 6 6 4 6 16 17 18 18 19 19 20
4 4 4 4 4 5 4 5 9 11 10 8 7 6 3 2 3 6 4 7 10 12 14 16 13 17 18 16 16 16 14 4 5 4 3 18 20 19 18 19 18 19 18
10 8 6 5 6 5 4 3 4 4 3 3 2 2 1 1 2 3 5 6 9 10 13 15 17 17 11 5 5 9 3 5 4 4 3 17 18 19 18 18 18 17 18
8 7 6 6 6 6 4 3 1 1 1 1 3 3 1 1 2 2 2 3 4 7 4 6 5 4 6 5 4 4 4 5 3 3 10 17 17 18 18 17 16 15 14
12 9 8 6 5 5 3 3 3 2 1 1 1 2 2 1 2 2 1 2 2 2 3 4 3 4 6 6 6 6 4 4 3 3 8 15 15 15 14 15 15 14 14
9 10 10 9 7 5 4 4 4 3 3 2 2 2 3 2 1 1 1 2 2 1 2 3 2 3 5 5 5 6 5 5 6 3 2 13 14 13 15 14 14 14 14
12 10 10 12 10 7 6 6 4 4 3 3 1 2 4 3 2 2 1 1 2 2 2 1 3 3 3 3 5 4 5 4 5 5 3 5 12 13 14 14 13 13 13
12 11 12 12 8 9 7 5 4 4 4 4 3 4 5 3 3 3 3 3 2 1 4 3 3 4 3 2 3 4 4 5 4 5 4 3 6 13 13 13 13 12 12
11 14 11 10 10 8 6 5 4 5 5 4 4 3 4 5 4 4 4 3 2 2 3 2 1 2 3 3 2 2 3 4 5 5 4 4 3 3 10 12 12 11 10
10 12 11 10 10 9 7 5 5 6 4 4 4 2 3 4 5 5 4 2 3 2 3 1 1 2 2 3 3 3 3 3 5 4 5 5 5 4 3 10 11 11 10
6 9 11 10 10 8 5 5 4 3 3 2 3 2 3 4 5 5 4 4 2 3 3 2 2 2 2 2 3 4 3 3 2 4 4 3 4 4 4 4 3 4 10
3 8 10 12 7 8 3 4 3 3 2 1 2 3 4 5 5 6 4 3 3 3 2 3 3 2 0 1 3 2 1 3 4 4 3 3 5 5 5 4 3 3 4
8 6 6 7 7 4 4 3 3 2 1 1 1 2 4 5 4 4 5 4 4 1 1 1 1 1 0 1 3 2 1 2 2 5 4 5 6 4 5 6 5 5 5
7 8 7 8 8 5 6 4 4 3 1 2 1 1 2 5 3 4 4 4 3 2 3 2 2 3 3 1 1 4 2 4 0 1 5 4 6 5 5 5 6 6 6
7 8 8 9 7 5 7 5 6 4 3 3 4 3 3 4 5 4 4 3 3 2 3 3 3 3 3 3 1 1 1 3 3 2 2 3 4 5 5 4 5 7 7
6 7 5 6 5 4 5 5 4 3 2 1 2 4 4 3 4 4 4 3 4 3 3 3 3 3 2 3 3 1 1 1 2 3 3 2 2 2 3 4 5 5 6
5 6 6 7 6 7 6 5 6 6 4 3 2 3 3 2 3 5 5 5 4 4 4 4 3 4 3 3 2 3 3 3 3 2 1 1 1 2 1 3 4 4 3
Wind_Direction
152 146 148 143 130 120 115 114 113 110 104 97 91 89 87 88 85 81 78 74 68 66 63 59 55 50 51 52 56 53 55 47 37 53 85 101 94 77 86 94 82 75 73
134 142 145 137 131 125 124 126 120 108 104 100 100 97 95 89 85 80 76 72 66 61 59 59 57 55 51 50 49 49 37 31 2 178 136 113 116 100 95 94 87 79 74
134 142 140 140 136 134 137 136 118 114 112 112 108 104 100 95 89 87 79 75 73 69 66 63 60 58 52 50 42 34 34 53 76 101 126 118 111 106 107 106 96 86 78
128 122 137 140 139 144 143 126 120 121 120 117 113 110 106 104 98 91 84 82 76 71 67 64 61 59 57 55 46 48 91 85 77 74 65 57 94 103 91 108 98 83 78
128 132 150 143 147 148 146 130 133 130 130 123 118 118 114 105 97 91 89 80 73 66 61 59 62 61 63 62 70 84 89 85 79 65 51 58 52 114 93 99 77 70 78
130 138 144 150 150 150 140 138 137 138 130 123 120 112 102 95 86 86 83 74 68 63 63 64 64 65 63 75 96 96 90 81 72 59 50 44 67 95 93 84 78 67 62
135 138 142 152 152 153 146 145 140 134 126 117 112 110 100 87 85 80 73 66 67 66 64 60 57 53 64 103 103 95 89 83 68 67 52 55 68 82 83 80 77 74 72
145 146 160 160 161 156 151 147 141 135 126 119 113 102 88 80 77 72 64 55 59 60 56 49 48 47 97 108 102 98 94 88 75 75 62 64 86 89 86 78 72 71 67
144 152 163 160 167 156 154 156 151 139 134 121 120 113 95 85 78 73 70 63 51 46 41 39 67 84 93 100 99 94 89 83 61 66 76 59 88 91 91 89 78 74 68
133 140 144 148 145 143 158 160 153 150 140 151 153 140 117 79 65 64 54 50 39 28 22 31 95 116 102 95 97 96 92 80 53 62 63 87 90 91 89 84 83 78 75
150 155 157 147 123 125 129 169 164 160 172 172 163 158 98 59 14 11 16 41 34 19 22 45 90 116 108 102 100 99 89 66 64 46 55 95 92 89 85 83 82 77 77
177 178 168 160 139 150 164 169 183 187 146 141 158 160 115 359 337 355 348 16 23 11 31 52 92 102 91 72 84 82 62 74 64 67 80 84 87 85 82 81 80 77 77
174 171 168 172 162 164 159 159 194 331 78 174 177 167 200 271 309 334 338 13 7 5 39 24 49 62 89 94 77 67 65 74 64 61 92 90 85 82 80 79 81 79 78
167 175 165 163 166 184 159 161 172 179 185 251 277 214 189 215 243 259 343 343 28 331 42 62 18 74 96 95 103 91 64 84 86 75 102 95 93 90 91 83 82 84 83
173 178 176 163 171 179 183 166 175 193 180 214 226 202 168 178 166 138 359 33 45 67 110 108 129 80 113 114 117 122 118 106 103 96 86 108 107 109 96 98 98 97 95
167 190 171 182 177 162 187 188 180 178 167 164 169 187 156 154 152 98 82 73 64 56 64 123 119 119 108 139 136 133 132 115 114 116 111 118 119 115 118 117 112 110 107
176 180 180 178 163 170 186 183 169 180 152 153 167 167 138 129 111 122 127 112 91 49 105 63 53 110 99 58 159 152 145 149 139 135 130 119 131 136 137 136 133 127 122
164 171 182 179 176 159 170 162 161 150 148 150 168 160 138 122 113 99 90 78 61 56 77 76 60 56 130 147 167 199 177 160 160 159 155 152 153 159 153 154 153 148 141
152 159 168 157 160 139 139 141 132 131 143 166 144 129 116 119 100 98 92 89 99 65 82 140 96 160 151 165 175 203 209 202 179 171 177 177 186 172 185 175 172 164 160
164 145 141 147 141 127 112 91 77 103 129 144 132 137 118 107 100 116 106 97 97 76 35 100 102 61 155 168 204 171 207 241 249 189 197 194 196 189 203 237 197 198 185
135 122 151 149 132 131 134 123 116 185 174 96 102 125 113 126 143 136 115 94 26 90 176 161 138 158 285 138 99 58 233 219 218 235 213 206 212 200 202 224 222 223 226
159 141 149 133 139 150 131 159 117 116 71 58 110 104 127 136 146 138 126 87 68 28 304 65 121 126 264 199 138 108 204 308 247 229 218 211 223 207 215 218 209 217 226
146 146 137 150 171 166 120 100 82 86 31 98 204 151 197 157 163 149 150 125 124 158 229 212 159 159 194 292 254 146 109 225 300 221 211 210 214 208 221 215 213 218 222
157 144 150 168 183 147 141 163 161 170 181 200 185 174 186 209 174 181 173 140 179 200 225 212 171 164 145 198 322 28 95 146 179 313 324 241 198 209 222 215 217 218 219
146 161 149 140 152 145 168 177 167 178 216 187 159 179 186 187 206 207 199 181 188 203 207 198 184 177 176 167 176 162 106 84 111 130 255 303 327 280 242 237 218 221 210
124 130 150 160 176 167 180 198 195 203 204 191 205 210 215 207 226 228 216 215 212 207 207 205 189 179 189 168 151 158 176 164 194 147 195 281 239 290 283 255 192 205 184